Starlink 1480

operational
NORAD ID: 45741 Int'l Des: 2020-038 Owner: SPXS Country: US Constellation: starlink
LEOCIRCULARSTARLINK_TYPE

关于 Starlink 1480

正在加载描述...

实时位置

正在加载3D地球...

即将过境

高度历史

Altitude vs Time

uPlot chart will show altitude changes over time

两行轨道根数

1 45741U 20038M 25304.65192955 .00005755 00000-0 40495-3 0 9997
2 45741 53.0545 95.8874 0000989 131.1417 228.9657 15.06399504296750
Epoch: Oct 31, 2025 • Age: 3 hours

当前状态

高度 555.8 km
速度 7.58 km/s
星下点 -26.81°S, 112.6°E
发射日期 Jun 13, 2020
运行时间 5.3 years
类型 internet

技术详情

分类 Payload
质量 260.00 kg
干质量 248.00 kg
总质量 260.00 kg
长度 0.20 m
直径 2.80 m
跨度 9.00 m
形状 Box + pan
制造商 SPXS
平台类型 Starlink
阶段状态 In Orbit
所有者/国家 SPXS/US

大型星座

Loading constellations...